Regional Weather Roundup
Issued by NWS

Home | Current Version | Previous Version | Graphics & Text | Print | Product List | Glossary On
Versions: 1 2 3 4 5 6 7 8 9 10 11 12 13 14 15 16 17 18 19 20 21 22 23 24 25 26 27 28 29 30 31 32 33 34 35 36 37 38 39 40 41 42 43 44 45 46 47 48 49 50
000
ASUS43 KDTX 301410
RWRMI
MICHIGAN HOURLY REGIONAL WEATHER ROUNDUP
NATIONAL WEATHER SERVICE DETROIT/PONTIAC MI
1000 AM EDT SAT MAY 30 2015

NOTE: "FAIR" INDICATES FEW OR NO CLOUDS BELOW 12,000 FEET WITH NO
SIGNIFICANT WEATHER AND/OR OBSTRUCTION TO VISIBILITY.

MIZ047>049-052>055-059>063-066>070-074>076-081>083-301500-
SOUTHEAST LOWER MICHIGAN

CITY           SKY/WX    TMP DP  RH WIND       PRES   REMARKS
ADRIAN         PTSUNNY   74  65  73 W9        30.02S
ALMA           CLOUDY    69  67  92 W6        29.99R
ANN ARBOR      MOSUNNY   77  67  71 SW12      30.00S
BAD AXE        CLOUDY    70  66  85 W8        29.97R
CARO           CLOUDY    72  67  87 W7        29.96S
DETROIT CITY   SUNNY     77  66  68 SW13      29.99S
DETROIT        PTSUNNY   77  66  68 SW13      30.00F
FLINT          PTSUNNY   77  67  71 W9        29.98R
GROSSE ILE     MOSUNNY   77  68  73 SW10      30.00R
HILLSDALE      CLOUDY    74  68  80 W6        30.03R
HOWELL         CLOUDY    74  66  75 SW7       30.00R

CITY           SKY/WX    TMP DP  RH WIND       PRES   REMARKS
JACKSON        CLOUDY    72  65  78 W9        30.01R
LAMBERTVILLE   CLOUDY    77  66  69 W9        30.02R
LANSING        LGT RAIN  70  66  87 SW10      30.00R
LAPEER         PTSUNNY   75  64  68 W12       29.98S
MASON          HVY RAIN  68  64  85 W9G20     30.01R
MONROE         MOSUNNY   79  66  65 SW12      30.00S
MT. CLEMENS    PTSUNNY   80  67  66 W10       29.96S
PONTIAC        PTSUNNY   75  65  70 SW12      29.99R
PORT HOPE        N/A     67  64  90 NW12G20   29.95R
PORT HURON     PTSUNNY   77  66  69 SW6       29.98S
TRI CITIES     CLOUDY    72  66  81 W8        29.97R
MIDLAND        CLOUDY    70  66  87 W5        29.97R
TROY           MOSUNNY   77  67  72 SW12      30.01R
SAGINAW HB     CLOUDY    72  72 100 W8        29.96S
$$
MIZ043>046-050>051-056>058-064>065-071>073-077>080-301500-
SOUTHWEST LOWER MICHIGAN

CITY           SKY/WX    TMP DP  RH WIND       PRES   REMARKS
BATTLE CREEK   CLOUDY    69  67  93 SW7       30.01S
BENTON HARBOR  CLOUDY    68  67  96 W6        29.99S
BIG RAPIDS     LGT RAIN  63  59  88 N8        29.99R
COLDWATER      CLOUDY    72  65  77 W5        30.01S
FREMONT        LGT RAIN  64  63  97 CALM      29.99R
HOLLAND        LGT RAIN  64  61  90 SW6       29.99S
GRAND RAPIDS   LGT RAIN  68  66  93 SW8       29.99R
IONIA          LGT RAIN  69  67  93 SW6       29.98S
KALAMAZOO      CLOUDY    70  67  90 SW5       30.00S
LUDINGTON      LGT RAIN  53  51  92 N7        30.04R
MARSHALL       CLOUDY    68  67  94 CALM      30.00F
MOUNT PLEASANT CLOUDY    68  65  88 NW3       29.98R
MUSKEGON       LGT RAIN  59  56  89 N3        29.99R FOG
SOUTH HAVEN    CLOUDY    67  65  96 W5        29.99F FOG
$$
MIZ016>042-301500-
NORTHERN LOWER MICHIGAN

CITY           SKY/WX    TMP DP  RH WIND       PRES   REMARKS
ALPENA         LGT RAIN  59  55  87 NW12G18   30.00R
BEAVER ISLAND  CLOUDY    49  45  85 N9G18     30.07S
BELLAIRE       LGT RAIN  51  49  92 N3        30.06R
CADILLAC       LGT RAIN  54  52  94 N9        30.03R
CHARLEVOIX     CLOUDY    47  46  99 NW8       30.10R
FRANKFORT      DRIZZLE   49  43  80 N8G16     30.07R
GAYLORD        LGT RAIN  53  53 100 VRB5      30.03R
GRAYLING       LGT RAIN  55  53  92 NW9G16    30.04R
HARBOR SPRINGS CLOUDY    50  47  90 N5        30.05R
HOUGHTON LAKE  LGT RAIN  59  56  89 N8        30.01R
MANISTEE       CLOUDY    52  48  87 N7        30.07R
OSCODA         LGT RAIN  65  64  94 NW9       29.97R
PELLSTON       CLOUDY    51  47  86 N12G21    30.06R
ROGERS CITY    LGT RAIN  52  50  94 NW13G22   30.03R
TRAVERSE CITY  LGT RAIN  49  48  97 N6        30.06R
$$
MIZ007>008-015-301500-
EASTERN UPPER MICHIGAN

CITY           SKY/WX    TMP DP  RH WIND       PRES   REMARKS
KINROSS        CLOUDY    46  45  93 NW18      30.03R
MACKINAC ISLAN CLOUDY    49  48  97 N13G18    30.04R
NEWBERRY       PTSUNNY   47  43  86 N16G23    30.08R
S. S. MARIE    CLOUDY    52  48  86 NW8       30.04R
MUNISING         N/A     44  39  82 NW13      30.14R
$$
MIZ004>006-011>014-085-301500-
CENTRAL UPPER MICHIGAN

CITY           SKY/WX    TMP DP  RH WIND       PRES   REMARKS
MANISTIQUE     PTSUNNY   49  43  81 N12G18    30.08R
ESCANABA       CLOUDY    48  37  66 N15G23    30.10R
MENOMINEE      CLOUDY    50  43  76 NE13      30.10R
SAWYER-GWINN   PTSUNNY   46  39  76 N23G30    30.14R
$$
MIZ001>003-009>011-084-301500-
WESTERN UPPER MICHIGAN

CITY           SKY/WX    TMP DP  RH WIND       PRES   REMARKS
IRON MOUNTAIN  PTSUNNY   51  41  68 N14       30.13R
HOUGHTON       CLOUDY    45  37  73 N20       30.20R
COPPER HARBOR    N/A     40  34  79 NE14G22   30.22R WCI  32
IRONWOOD       CLOUDY    43  39  87 N14       30.19R
$$

ABBREVIATIONS USED IN REMARKS
   TC - TEMPERATURE IN CELSIUS
  WCI - WIND CHILL INDEX
   HX - HEAT INDEX
  VSB - VISIBILITY



USA.gov is the U.S. government's official web portal to all federal, state and local government web resources and services.